weather.gov     
National Weather Service

Regional Weather Roundup
NWS Homepage
This page is being discontinued on March 12, 2014.
The same data is available at this site. Please update your bookmarks.
Thank you, and we apologize for the inconvenience.
Please send an email to SR-SRH.Webmaster@noaa.gov with any concerns.


Current Version
Previous Version:    01  02  03  04  05  06  07  08  09  10  11  12  13  14  15  16  17  18  19  20  21  22  23  24  25  26  27  28  29  30  
   31  32  33  34  35  36  37  38  39  40  41  42  43  44  45  46  47  48  49  50  51  52  53  54  55  56  57  58  59  60  
[Printable]
609
ASUS44 KHUN 191010
RWRHUN

WEATHER ROUNDUP FOR THE TENNESSEE VALLEY
NATIONAL WEATHER SERVICE HUNTSVILLE AL
500 AM CDT SAT APR 19 2014

ALZ001>004-191100-
NORTHWEST ALABAMA

CITY           SKY/WX    TMP DP  RH WIND       PRES   REMARKS
SHOALS AIRPORT PTCLDY    49  44  83 NW3       30.16S
$$

ALZ005>007-016-191100-
NORTH CENTRAL ALABAMA

CITY           SKY/WX    TMP DP  RH WIND       PRES   REMARKS
DECATUR AP     CLOUDY    51  48  89 N5        30.14F
HUNTSVILLE AP  CLOUDY    51  47  86 CALM      30.13F
HUN NWS/UAH      N/A     52  47  82 NE1         N/A
MERIDIANVILLE  CLOUDY    48  45  87 CALM      30.14F
VINEMONT AP    FAIR      50  48  91 CALM      30.14F
$$

ALZ008>010-191100-
NORTHEAST ALABAMA

CITY           SKY/WX    TMP DP  RH WIND       PRES   REMARKS
ALBERTVILLE    CLOUDY    52  50  93 N3        30.10F
FORT PAYNE     CLOUDY    50  45  81 CALM      30.11F
SCOTTSBORO AP  CLOUDY    50  48  93 CALM      30.13F
SCOTTSBORO HCN   N/A     48 N/A N/A MISG        N/A
VALLEY HEAD      N/A     50 N/A N/A MISG        N/A
$$

TNZ076-096-097-191100-
SOUTHEASTERN MIDDLE TENNESSEE

CITY           SKY/WX    TMP DP  RH WIND       PRES   REMARKS
FAYETTEVILLE   FAIR      50  45  83 N8        30.14F
TULLAHOMA      CLEAR     46  43  87 CALM      30.16S
WINCHESTER     CLEAR     46  45  93 CALM      30.15S
$$

...SURROUNDING SITES...

CITY           SKY/WX    TMP DP  RH WIND       PRES   REMARKS
ATLANTA        LGT RAIN  52  50  93 N14       30.06S FOG
ANNISTON       CLOUDY    52  50  93 CALM      30.10S
BIRMINGHAM     CLOUDY    52  50  93 CALM      30.13F
CHATTANOOGA    CLOUDY    55  46  71 CALM      30.12S
CORINTH        FAIR      48  46  93 CALM      30.17S FOG
DALTON         CLOUDY    52  50  93 N6        30.10S
GADSDEN        NOT AVBL
GOLDEN TRNGL   CLEAR     50  45  81 NW3       30.17S VSB 1
HALEYVILLE     FAIR      48  47  97 N5        30.17S
JACKSON TN     CLEAR     47  45  93 CALM      30.18S FOG
LEWISBURG      FAIR      46  43  90 NW3       30.16S
MEMPHIS        PTCLDY    53  49  86 CALM      30.18S
MURFREESBORO   FAIR      51  47  86 NW3       30.17S
NASHVILLE      PTCLDY    48  45  89 CALM      30.18F
OXFORD MS      FAIR      46  45  93 CALM      30.19S
ROME           CLOUDY    51  51 100 NW5       30.09S
TUPELO         CLEAR     49  47  93 NE5       30.16S
TUSCALOOSA     CLOUDY    53  49  86 CALM      30.13S
$$

...GULF COAST WEATHER...

CITY           SKY/WX    TMP DP  RH WIND       PRES   REMARKS
GULFPORT       CLEAR     58  51  78 NE13      30.07F
PASCAGOULA     CLEAR     54  52  93 N8        30.07S
MOBILE         PTCLDY    53  52  96 N14G21    30.08F
GULF SHORES    PTSUNNY   55  52  92 NW8       30.03F
PENSACOLA      CLOUDY    56  53  90 N12       30.01F
DESTIN         CLOUDY    59  53  80 N14       29.99
PANAMA CITY    CLOUDY    56  51  83 N10       29.96S
APPALACHICOLA  CLOUDY    57  54  89 N8        29.92F
$$





U.S. Dept. of Commerce
NOAA National Weather Service
1325 East West Highway
Silver Spring, MD 20910
E-mail: w-nws.webmaster@noaa.gov
Page last modified: May 16, 2007
NATIONAL WEATHER SERVICE: for Safety, for Work, for Fun - FOR LIFE